Location: Chefe Valiua
(16.5342°S, 37.2214°E)
Time: 05:32:09
(UTC+00:00)

Envisat - Pass Details

Date: 15 June 2021
Orbit: 764 x 766 km, 98.2° (Epoch: 27 July)

Event Time Altitude Azimuth Distance (km) Brightness Sun altitude
Rises 02:27:40 0° 9° (N) 3,210 6.6 -20.8°
Reaches altitude 10° 02:29:57 10° 7° (N) 2,290 5.8 -20.3°
Maximum altitude 02:34:59 75° 282° (WNW) 794 2.9 -19.1°
Enters shadow 02:39:10 16° 197° (SSW) 1,952 4.8 -18.2°
